Weather Roundup
Issued by NWS

Home | Current Version | Previous Version | Graphics & Text | Print | Product List | Glossary Off
Versions: 1 2 3 4 5 6 7 8 9 10 11 12 13 14 15 16 17 18 19 20 21 22 23 24 25 26 27 28 29 30 31 32 33 34 35 36 37 38 39 40 41 42 43 44 45 46 47 48 49 50

000
NZUS93 KARX 221710
HRRWXR

CURRENT HOURLY OBSERVATIONS ACROSS
MUCH OF THE UPPER MISSISSIPPI VALLEY
NATIONAL WEATHER SERVICE LA CROSSE WI
1200 PM CDT FRI AUG 22 2014


...SOUTHEAST MINNESOTA...


CITY           SKY/WX    TMP DP  RH WIND       PRES   REMARKS
ROCHESTER      PTSUNNY   80  69  69 CALM      29.99R
ROCHESTER/MAYO PTSUNNY   78  67  68 W6        29.98R
WINONA         SUNNY     81  70  69 CALM      29.94S
AUSTIN         MOSUNNY   81  72  74 NE5       29.98R
ALBERT LEA     MOSUNNY   79  72  78 N7        29.98R
DODGE CENTER   CLOUDY    75  70  83 N5        29.99R
PRESTON        PTSUNNY   78  74  87 CALM      29.98S
OWATONNA       PTSUNNY   75  68  78 NE3       29.98S
FARIBAULT      PTSUNNY   81  66  61 CALM      29.97S
$$

...ELSEWHERE IN MINNESOTA...


CITY           SKY/WX    TMP DP  RH WIND       PRES   REMARKS
MINNEAPOLIS    CLOUDY    74  68  81 NW6       29.97R
INTNL FALLS    CLOUDY    71  64  78 VRB3      30.01R
DULUTH         FOG       64  62  93 CALM      30.00R VSB 3/4
RED WING       PTSUNNY   81  70  69 SW5       29.94S
REDWOOD FALLS  PTSUNNY   79  69  71 E6        29.98R
MANKATO        CLOUDY    77  66  69 NE5       29.97R
WORTHINGTON    MOSUNNY   79  19  11 NE9       30.01S
FAIRMONT       CLOUDY    79  70  73 MISG      29.99R
$$

...SOUTHWEST WISCONSIN...


CITY           SKY/WX    TMP DP  RH WIND       PRES   REMARKS
LA CROSSE      CLOUDY    79  73  82 N5        29.94R
PRAIRIE DU CHI MOSUNNY   84  74  71 SE3       29.93F HX  90
BOSCOBEL       PTSUNNY   85  75  72 CALM      29.94F HX  93
LONE ROCK      PTSUNNY   88  75  65 SW6       29.94S HX  97
PLATTEVILLE    MOSUNNY   81  76  84 SE8       29.98R
FORT MC COY    CLOUDY    77  73  85 W3        29.96R FOG
CAMP DOUGLAS   CLOUDY    79  79 100 S5        29.96R
VIROQUA        CLOUDY    79  78  97 S5        29.97S
WIS DELLS      MOSUNNY   85  70  60 S6        29.95S HX  90
$$

...ELSEWHERE IN WISCONSIN...


CITY           SKY/WX    TMP DP  RH WIND       PRES   REMARKS
MILWAUKEE      CLOUDY    74  70  87 E5        29.96F
MADISON        MOSUNNY   81  74  79 S6        29.95S
GREEN BAY      CLOUDY    76  72  87 S6        29.97R FOG
EAU CLAIRE     PTSUNNY   78  72  81 S7        29.94R
BLACK RVR FLS  CLOUDY    77  76  94 SW3       29.94S
MEDFORD        CLOUDY    70  70 100 SE5       29.98R FOG
WAUSAU         CLOUDY    72  69  90 S7        29.96R FOG
WIS RAPIDS     CLOUDY    80  73  79 SW7       29.97R
MARSHFIELD     CLOUDY    75  72  90 S7        29.96R FOG
RICE LAKE      CLOUDY    73  71  92 CALM      29.97R
$$

...NORTHEAST IOWA...


CITY           SKY/WX    TMP DP  RH WIND       PRES   REMARKS
WATERLOO       MOSUNNY   84  76  76 VRB5      29.94R HX  93
DUBUQUE        CLOUDY    77  75  93 SE5       29.97S FOG
DECORAH        CLOUDY    79  75  89 CALM      29.96S
MASON CITY     CLOUDY    82  73  74 E6        29.98S
CHARLES CITY   CLOUDY    77  75  94 CALM      29.97S FOG
OELWEIN        CLOUDY    81  77  89 S7        29.97R
$$

...ELSEWHERE IN IOWA...


CITY           SKY/WX    TMP DP  RH WIND       PRES   REMARKS
DES MOINES     PTSUNNY   83  74  74 S7        29.94S
IOWA CITY      PTSUNNY   82  75  79 SE7       29.97R
FORT DODGE     CLOUDY    81  75  83 SE3       29.96S
MARSHALLTOWN   MOSUNNY   83  73  72 CALM      29.94S
CEDAR RAPIDS   PTSUNNY   83  73  72 W7        29.95R
$$

...NORTHERN ILLINOIS...


CITY           SKY/WX    TMP DP  RH WIND       PRES   REMARKS
CHICAGO-OHARE  CLOUDY    80  73  79 W10       29.96S
DUPAGE         CLOUDY    80  73  79 W7        29.96S
CHICAGO-MIDWAY CLOUDY    80  74  81 W10       29.97R
MOLINE         CLOUDY    75  72  90 CALM      29.97R
ROCKFORD       CLOUDY    80  72  76 SW7       29.96S
STERLING       CLOUDY    73  70  88 W10       29.98R
PEORIA         LGT RAIN  74  71  91 S7        29.99F FOG
$$

NOTE: "FAIR" INDICATES FEW OR NO CLOUDS BELOW 12,000 FEET WITH NO
SIGNIFICANT WEATHER AND/OR OBSTRUCTIONS TO VISIBILITY. WIND
SPEEDS ARE IN MILES-PER-HOUR.



USA.gov is the U.S. government's official web portal to all federal, state and local government web resources and services.